Location: Aula-Vintri
(58.3875°N, 22.4322°E)
Time: 14:12:27
(UTC+00:00)

USA 186 - Pass Details

Date: 13 October 2019
Orbit: 261 x 450 km, 96.9° (Epoch: 07 October)

Event Time Altitude Azimuth Distance (km) Brightness Sun altitude
Exits shadow 18:39:12 21° 281° (WNW) 857 4.0 -24.8°
Drops below altitude 10° 18:40:56 10° 319° (NW) 1,288 5.1 -25.0°
Sets 18:43:01 0° 336° (NNW) 2,091 6.1 -25.2°
